When you browse on this site, cookies collect data to enhance your experience and personalize the content and advertising you see.
Visit our Privacy Policy to learn more. By continuing to use the site, you agree to this use of cookies and data.

Hourly Weather Coron

Today, 29 September, Tuesday

Time Temperature Precipitation Wind Pressure Humidity
00:00 +29°C° 2.1 mm 2 mps 756 mmHg 82%
01:00 +29°C° 2.1 mm 2 mps 756 mmHg 83%
02:00 +29°C° 0 mm 3 mps 755 mmHg 83%
03:00 +29°C° 0.9 mm 3 mps 755 mmHg 83%
04:00 +29°C° 0.9 mm 3 mps 755 mmHg 84%
05:00 +29°C° 0.9 mm 3 mps 755 mmHg 84%
06:00 +29°C° 2 mm 3 mps 755 mmHg 82%
07:00 +30°C° 2 mm 3 mps 756 mmHg 80%
08:00 +30°C° 2 mm 3 mps 756 mmHg 79%
09:00 +30°C° 1.8 mm 4 mps 756 mmHg 78%
10:00 +30°C° 1.8 mm 4 mps 756 mmHg 78%
11:00 +32°C° 1.8 mm 4 mps 756 mmHg 78%
12:00 +30°C° 1.5 mm 4 mps 756 mmHg 79%
13:00 +30°C° 1.5 mm 4 mps 755 mmHg 80%
14:00 +30°C° 1.5 mm 4 mps 754 mmHg 82%
15:00 +29°C° 1 mm 5 mps 754 mmHg 82%
16:00 +29°C° 1 mm 5 mps 754 mmHg 82%
17:00 +29°C° 1 mm 5 mps 754 mmHg 83%
18:00 +29°C° 1.1 mm 5 mps 754 mmHg 84%
19:00 +29°C° 1.1 mm 4 mps 754 mmHg 84%
20:00 +29°C° 1.1 mm 4 mps 755 mmHg 85%
21:00 +29°C° 0.2 mm 4 mps 755 mmHg 85%
22:00 +29°C° 0.2 mm 3 mps 755 mmHg 84%
23:00 +29°C° 0.2 mm 3 mps 756 mmHg 84%

Tomorrow, 30 September, Wednesday

Time Temperature Precipitation Wind Pressure Humidity
00:00 +29°C° 0.2 mm 3 mps 755 mmHg 84%
01:00 +29°C° 0.2 mm 3 mps 755 mmHg 85%
02:00 +28°C° 0.2 mm 3 mps 754 mmHg 85%
03:00 +28°C° 0 mm 3 mps 754 mmHg 85%
04:00 +28°C° 0 mm 3 mps 754 mmHg 85%
05:00 +28°C° 0 mm 3 mps 754 mmHg 85%
06:00 +29°C° 0 mm 2 mps 754 mmHg 83%
07:00 +29°C° 0 mm 2 mps 754 mmHg 82%
08:00 +30°C° 0 mm 2 mps 755 mmHg 80%
09:00 +31°C° 0 mm 2 mps 755 mmHg 76%
10:00 +32°C° 0 mm 2 mps 755 mmHg 72%
11:00 +32°C° 0 mm 2 mps 755 mmHg 68%
12:00 +32°C° 0.6 mm 2 mps 754 mmHg 72%
13:00 +31°C° 0.6 mm 2 mps 753 mmHg 75%
14:00 +31°C° 0.6 mm 3 mps 753 mmHg 78%
15:00 +31°C° 0.3 mm 3 mps 753 mmHg 79%
16:00 +30°C° 0.3 mm 3 mps 753 mmHg 80%
17:00 +30°C° 0.3 mm 3 mps 752 mmHg 81%
18:00 +30°C° 0.2 mm 3 mps 753 mmHg 82%
19:00 +29°C° 0.2 mm 3 mps 753 mmHg 83%
20:00 +29°C° 0.2 mm 2 mps 754 mmHg 84%
21:00 +29°C° 0.1 mm 2 mps 754 mmHg 85%
22:00 +29°C° 0.1 mm 2 mps 754 mmHg 85%
23:00 +29°C° 0.1 mm 2 mps 754 mmHg 85%

Day after tomorrow, 1 October, Thursday

Time Temperature Precipitation Wind Pressure Humidity
00:00 +29°C° 0 mm 2 mps 754 mmHg 85%
01:00 +29°C° 0 mm 2 mps 753 mmHg 85%
02:00 +29°C° 0 mm 1 mps 753 mmHg 84%
03:00 +29°C° 0.2 mm 1 mps 753 mmHg 84%
04:00 +29°C° 0.2 mm 1 mps 753 mmHg 84%
05:00 +28°C° 0.2 mm 1 mps 753 mmHg 84%
06:00 +29°C° 0.2 mm 1 mps 753 mmHg 83%
07:00 +30°C° 0.2 mm 1 mps 754 mmHg 82%
08:00 +28°C° 0.2 mm 0 mps 754 mmHg 81%
09:00 +29°C° 0.4 mm 0 mps 754 mmHg 79%
10:00 +31°C° 0.4 mm 1 mps 754 mmHg 76%
11:00 +32°C° 0.4 mm 1 mps 754 mmHg 74%
12:00 +31°C° 0.9 mm 1 mps 754 mmHg 75%
13:00 +31°C° 0.9 mm 1 mps 753 mmHg 76%
14:00 +31°C° 0.9 mm 2 mps 752 mmHg 77%
15:00 +31°C° 0.3 mm 2 mps 753 mmHg 78%
16:00 +31°C° 0.3 mm 2 mps 753 mmHg 78%
17:00 +31°C° 0.3 mm 2 mps 753 mmHg 79%
18:00 +30°C° 0 mm 2 mps 753 mmHg 80%
19:00 +30°C° 0 mm 1 mps 754 mmHg 81%
20:00 +29°C° 0 mm 1 mps 754 mmHg 82%
21:00 +29°C° 0.1 mm 1 mps 754 mmHg 82%
22:00 +29°C° 0.1 mm 1 mps 755 mmHg 83%
23:00 +29°C° 0.1 mm 2 mps 755 mmHg 83%

2 October, Friday

Time Temperature Precipitation Wind Pressure Humidity
00:00 +29°C° 0.4 mm 2 mps 754 mmHg 83%
01:00 +29°C° 0.4 mm 2 mps 754 mmHg 83%
02:00 +29°C° 0.4 mm 2 mps 753 mmHg 83%
03:00 +29°C° 0.3 mm 2 mps 754 mmHg 83%
04:00 +29°C° 0.3 mm 2 mps 754 mmHg 84%
05:00 +29°C° 0.3 mm 2 mps 754 mmHg 84%
06:00 +29°C° 0.6 mm 2 mps 754 mmHg 82%
07:00 +30°C° 0.6 mm 1 mps 755 mmHg 80%
08:00 +31°C° 0.6 mm 1 mps 755 mmHg 77%
09:00 +31°C° 0.2 mm 1 mps 755 mmHg 75%
10:00 +32°C° 0.2 mm 2 mps 755 mmHg 73%
11:00 +32°C° 0.2 mm 2 mps 755 mmHg 71%
12:00 +32°C° 0.8 mm 2 mps 755 mmHg 73%
13:00 +31°C° 0.8 mm 2 mps 754 mmHg 75%
14:00 +31°C° 0.8 mm 2 mps 753 mmHg 78%
15:00 +31°C° 0.4 mm 2 mps 754 mmHg 79%
16:00 +30°C° 0.4 mm 2 mps 754 mmHg 80%
17:00 +30°C° 0.4 mm 2 mps 754 mmHg 82%
18:00 +30°C° 0 mm 2 mps 754 mmHg 82%
19:00 +29°C° 0 mm 2 mps 755 mmHg 83%
20:00 +29°C° 0 mm 1 mps 755 mmHg 84%
21:00 +28°C° 0 mm 1 mps 755 mmHg 85%
22:00 +28°C° 0 mm 1 mps 755 mmHg 85%
23:00 +28°C° 0 mm 1 mps 755 mmHg 85%

3 October, Saturday

Time Temperature Precipitation Wind Pressure Humidity
00:00 +28°C° 0.1 mm 1 mps 755 mmHg 85%
01:00 +28°C° 0.1 mm 1 mps 755 mmHg 85%
02:00 +28°C° 0.1 mm 1 mps 754 mmHg 85%
03:00 +28°C° 0.1 mm 1 mps 754 mmHg 85%
04:00 +28°C° 0.1 mm 1 mps 754 mmHg 85%
05:00 +28°C° 0.1 mm 1 mps 754 mmHg 85%
06:00 +28°C° 0.1 mm 1 mps 755 mmHg 83%
07:00 +27°C° 0.1 mm 0 mps 755 mmHg 80%
08:00 +28°C° 0.1 mm 0 mps 756 mmHg 78%
09:00 +31°C° 0.1 mm 1 mps 756 mmHg 74%
10:00 +31°C° 0.1 mm 1 mps 756 mmHg 70%
11:00 +32°C° 0.1 mm 1 mps 756 mmHg 66%
12:00 +32°C° 1.2 mm 1 mps 755 mmHg 69%
13:00 +31°C° 1.2 mm 2 mps 754 mmHg 72%
14:00 +31°C° 1.2 mm 2 mps 754 mmHg 75%
15:00 +31°C° 0.9 mm 2 mps 754 mmHg 76%
16:00 +31°C° 0.9 mm 2 mps 754 mmHg 77%
17:00 +30°C° 0.9 mm 2 mps 754 mmHg 79%
18:00 +30°C° 1.1 mm 2 mps 754 mmHg 79%
19:00 +29°C° 1.1 mm 2 mps 755 mmHg 80%
20:00 +29°C° 1.1 mm 1 mps 755 mmHg 81%
21:00 +29°C° 0.1 mm 1 mps 755 mmHg 81%
22:00 +29°C° 0.1 mm 1 mps 755 mmHg 81%
23:00 +29°C° 0.1 mm 1 mps 755 mmHg 81%

4 October, Sunday

Time Temperature Precipitation Wind Pressure Humidity
00:00 +29°C° 0.2 mm 1 mps 755 mmHg 81%
01:00 +29°C° 0.2 mm 1 mps 755 mmHg 81%
02:00 +29°C° 0.2 mm 1 mps 754 mmHg 81%
03:00 +29°C° 0.5 mm 2 mps 754 mmHg 81%
04:00 +29°C° 0.5 mm 2 mps 754 mmHg 82%
05:00 +29°C° 0.5 mm 2 mps 754 mmHg 82%
06:00 +29°C° 0.9 mm 2 mps 755 mmHg 81%
07:00 +30°C° 0.9 mm 2 mps 755 mmHg 80%
08:00 +30°C° 0.9 mm 2 mps 756 mmHg 78%
09:00 +31°C° 0.6 mm 2 mps 756 mmHg 75%
10:00 +32°C° 0.6 mm 2 mps 755 mmHg 71%
11:00 +34°C° 0.6 mm 2 mps 755 mmHg 67%
12:00 +32°C° 0.8 mm 2 mps 755 mmHg 70%
13:00 +32°C° 0.8 mm 2 mps 754 mmHg 72%
14:00 +31°C° 0.8 mm 2 mps 754 mmHg 75%
15:00 +31°C° 0.1 mm 3 mps 754 mmHg 75%
16:00 +31°C° 0.1 mm 3 mps 753 mmHg 75%
17:00 +31°C° 0.1 mm 3 mps 753 mmHg 75%
18:00 +30°C° 0 mm 2 mps 754 mmHg 77%
19:00 +30°C° 0 mm 2 mps 754 mmHg 78%
20:00 +29°C° 0 mm 2 mps 755 mmHg 80%
21:00 +29°C° 0 mm 2 mps 755 mmHg 80%
22:00 +29°C° 0 mm 2 mps 755 mmHg 80%
23:00 +29°C° 0 mm 2 mps 755 mmHg 80%
Show more